Reflectivity
-20 -20 -20 -20 -20 -20 -20 -20 -20 -20 -20 -20 -20 -20 -20 -20 -20 -20 -20 -20 -20 -20 -20 -20 -20 -20 -20 -20 -20 -20 -20 -20 -20 -20 -20 -20 -20 -20 -20 -20 -18 -6 -19 -18 -20 -20 10 14 -2
-20 -20 -20 -20 -20 -20 -20 -20 -20 -20 -20 -20 -20 -20 -20 -20 -20 -20 -20 -20 -20 -20 -20 -20 -20 -20 -20 -20 -20 -20 -20 -20 -20 -20 -20 -20 -20 -20 -20 -20 -20 4 11 10 -13 2 5 12 -7
-20 -20 -20 -20 -20 -20 -20 -20 -20 -20 -20 -20 -20 -20 -20 -20 -20 -20 -20 -20 -20 -20 -20 -20 -20 -20 -20 -20 -20 -20 -20 -1 -20 0 -19 -20 -20 -20 -20 -20 -20 7 11 10 9 -19 7 9 -20
-20 -20 -20 -20 -20 -20 -20 -20 -20 -20 -20 -20 -20 -20 -20 -20 -20 -20 -20 -20 -20 -20 -20 -20 -20 -20 -20 -20 -20 -20 -20 -20 -9 -20 -20 -17 -8 -18 -20 -7 4 9 -19 -11 10 -20 -20 -20 -20
-20 -20 -20 -20 -20 -20 -20 -20 -20 -20 -20 -20 -20 -20 -20 -20 -20 -20 -20 -20 -20 -20 -20 -20 -20 -20 -20 -20 -20 -20 -20 11 -12 24 36 10 27 -9 9 27 -1 7 -3 15 -20 8 -4 -20 -20
-20 -20 -20 -20 -20 -20 -20 -20 -20 -20 -20 -20 -20 -20 -20 -20 -20 -20 -20 -20 -20 -20 -20 -20 -20 -20 -20 -3 -0 3 -1 -10 -14 -8 -19 -14 26 27 26 23 12 10 12 4 -3 -20 -9 -20 -20
-20 -20 -20 -20 -20 -20 -20 -20 -20 -20 -20 -20 -20 -20 -20 -20 -20 -20 -20 -20 -20 -20 -20 -20 -20 -20 -16 -2 -14 4 11 -20 -20 -12 -20 -15 19 34 41 38 33 34 28 -8 7 1 -20 -20 -20
-20 -20 -20 -20 -20 -20 -20 -20 -20 -20 -20 -20 -20 -20 -20 -20 -20 -20 -20 -20 -20 -20 -20 -20 -20 -20 -20 -20 12 -11 -18 33 13 -16 26 1 10 -2 32 16 26 31 33 -17 -19 -15 -20 -20 -20
-20 -20 -20 -20 -20 -20 -20 -20 -20 -20 -20 -20 -20 -20 -20 -20 -20 -20 -20 -20 -20 -20 -20 -20 -20 -20 -20 -20 -13 8 28 -11 -20 -12 -4 -11 6 -11 -19 -20 18 35 34 32 -12 -20 -20 -20 -20
-20 -20 -20 -20 -20 -20 -20 -20 -20 -20 -20 -20 -20 -20 -20 -20 -20 -20 -20 -20 -20 -20 -20 -20 -20 -20 -20 -8 12 -16 -4 -20 5 -15 8 -2 -12 -20 16 -20 -18 28 38 33 25 -20 -20 -20 -20
-20 -20 -20 -20 -20 -20 -20 -20 -20 -20 -20 -20 -20 -20 -20 -20 -20 -20 -20 -20 -20 -20 -20 -20 -20 -20 -20 -20 -12 -15 -20 -20 -20 -20 -20 -11 -4 16 23 6 -3 33 43 32 10 -20 -20 -20 -20
-20 -20 -20 -20 -20 -20 -20 -20 -20 -20 -20 -20 -20 -20 -20 -20 -20 -20 -20 -20 -20 -20 -20 -20 -20 -20 -20 -18 -20 -20 -20 -20 -20 -20 -16 1 17 29 24 3 24 33 36 -13 -5 -20 -20 -19 -20
-20 -20 -20 -20 -20 -20 -20 -20 -20 -20 -20 -20 -20 -20 -20 -20 -20 -20 -20 -20 -20 -20 -20 -20 -20 -20 -20 2 -8 -20 -20 -20 -20 -20 -20 13 37 22 34 15 30 33 24 0 -14 -20 -20 -11 9
-20 -20 -20 -20 -20 -20 -20 -20 -20 -20 -20 -20 -20 -20 -20 -20 -20 -20 -20 -20 -20 -20 -20 -20 -20 -20 -20 -20 -4 -20 -20 -20 -20 -20 -20 -2 29 36 34 30 32 32 2 -20 -20 -20 -20 -20 -12
-20 -20 -20 -20 -20 -20 -20 -20 -20 -20 -20 -20 -20 -20 -20 -20 -20 -20 -20 -20 -20 -20 -20 -20 -20 -20 -20 -20 -20 -20 -6 13 -20 -20 -20 14 6 30 35 36 32 28 21 -20 -10 -20 -20 -20 -20
-20 -20 -20 -20 -20 -20 -20 -20 -20 -20 -20 -20 -20 -20 -20 -20 -20 -20 -20 -20 -20 -20 -20 -20 -20 -20 -20 -20 -20 -20 -20 5 -14 -20 1 -13 4 3 14 17 24 11 15 -7 -20 -20 -20 -20 -20
-20 -20 -20 -20 -20 -20 -20 -20 -20 -20 -20 -20 -20 -20 -20 -20 -20 -20 -20 -20 -20 -20 -20 -20 -20 -20 -20 -20 -20 -20 -20 -20 2 -17 -9 9 3 -0 1 -9 4 -20 -20 -3 -14 -20 -20 -20 -20
-20 -20 -20 -20 -20 -20 -20 -20 -20 -20 -20 -20 -20 -20 -20 -20 -20 -20 -20 -20 -20 -20 -20 -20 -20 -20 -20 -20 -20 -20 -20 -20 -2 -11 19 9 14 1 -8 21 20 -7 -20 -19 -11 -15 -20 -20 -20
-20 -20 -20 -20 -20 -20 -20 -20 -20 -20 -20 -20 -20 -20 -20 -20 -20 -20 -20 -20 -20 -20 -20 -20 -20 -20 -20 -20 -20 -20 -20 -20 -20 -20 -20 30 5 6 17 -13 -20 36 14 -20 -15 -18 -10 -15 -20
-20 -20 -20 -20 -20 -20 -20 -20 -20 -20 -20 -20 -20 -20 -20 -20 -20 -20 -20 -20 -20 -20 -20 -20 -20 -20 4 -20 -20 -20 -20 -20 -20 -20 -20 -20 14 30 17 21 36 24 11 -10 26 7 -20 -18 -20
-20 -20 -20 -20 -20 -20 -20 -20 -20 -20 -20 -20 -20 -20 -20 -20 -20 -20 -20 -20 -20 -20 -20 -20 -20 -20 -7 -20 -20 -20 -20 -20 -20 -20 -20 -20 -11 1 8 31 3 20 -20 23 25 24 8 -20 -19
-20 -20 -20 -20 -20 -20 -20 -20 -20 -20 -20 -20 -20 -20 -20 -20 -4 -20 -20 -20 -20 -20 -20 -20 -20 -20 -18 -20 -20 -20 -20 -20 -20 -20 -20 -20 -9 -3 22 12 14 37 10 14 18 19 17 8 -19
-20 -20 -20 -20 -20 -20 -20 -20 -20 -20 -20 -20 -20 -20 -20 7 -1 -10 -20 -20 -20 -20 -20 -20 -20 -20 8 -20 -20 -20 -20 -20 -20 -20 -18 2 -20 1 4 5 26 21 17 19 21 28 3 11 10
-20 -20 -20 -20 -20 -12 -20 -20 -20 -20 -20 -20 -20 -20 3 7 3 -6 -16 -20 -20 -20 -20 -20 -15 3 -18 -20 -20 -20 -20 -20 -20 -20 -20 9 -3 7 -3 17 14 22 39 30 31 32 10 26 28
-20 6 -5 4 9 -19 -20 -20 -20 -20 -20 -20 -20 -20 -6 10 -4 -20 -20 -20 -20 -20 -20 -20 -20 2 -20 -20 -20 -20 -20 -20 -20 -20 -20 -9 12 12 -1 9 14 21 26 32 31 30 33 26 20
-18 12 -10 -20 -20 -20 -20 -20 -20 -4 -13 -20 -20 -20 -20 -13 -20 -20 -20 -20 -20 -20 -20 -20 -20 -20 -13 -20 -20 -20 -20 -20 -20 -20 -20 -20 -8 -20 -11 -5 -8 -9 9 16 16 24 13 -15 16
-20 8 7 23 16 10 -20 -20 -20 -17 -20 -20 -20 -19 -20 -20 -20 -9 -20 -20 -20 -20 -20 -20 -20 -20 3 -20 -20 -20 -20 -20 -20 -20 -20 -20 -20 -20 -20 -20 -20 -20 -5 4 -7 10 4 17 18
-20 13 18 24 10 -0 -20 -20 -20 -20 -20 -20 -20 -20 -20 -20 -20 -10 -20 -20 -20 -20 -20 -20 -20 -20 -20 -9 -20 -20 -20 -20 -20 -20 -20 -20 -20 -20 -20 -20 -20 -20 -7 13 23 16 12 3 21
-20 10 4 23 34 11 -18 7 6 -20 -20 -20 -20 -20 -20 -20 -20 -20 -19 -20 -20 -20 -20 -20 -20 -20 -20 -20 -20 -20 -20 -20 -20 -20 -20 -20 -20 -20 -20 -20 -20 -20 -20 -20 -20 -17 17 18 -1
-20 -18 13 23 18 10 -6 -20 21 14 -20 -20 -20 -20 -20 -20 -20 -20 -20 -20 -20 -20 -20 -20 -20 -20 -20 -20 -20 -11 -20 -20 -20 -20 -20 -20 -20 -20 -20 -20 -20 -20 -20 -20 -20 -20 -20 -7 -5
Wind_Speed
4 2 2 5 4 5 4 8 3 6 3 4 4 4 6 2 5 5 1 9 9 11 11 11 13 14 14 14 14 13 15 17 17 17 18 19 19 18 18 17 16 18 20 22 22 23 23 24 22
4 2 5 3 5 1 6 6 7 7 5 1 5 3 2 1 2 4 5 8 12 11 10 11 13 13 13 14 14 15 16 17 17 17 16 17 18 18 18 18 16 17 18 21 22 24 23 23 22
5 3 4 5 4 6 6 5 1 6 4 4 5 3 6 4 3 6 4 12 9 9 9 11 16 15 16 16 15 15 16 16 16 18 17 17 18 18 18 18 17 18 19 20 22 24 23 21 22
2 5 5 4 9 7 7 4 4 8 7 4 2 4 1 2 8 7 11 12 10 7 7 9 14 14 15 15 15 15 16 16 15 18 19 18 18 18 17 15 16 18 18 19 21 23 23 21 21
4 3 1 3 8 6 5 7 3 8 4 8 5 5 2 6 2 9 12 10 9 6 5 6 9 11 12 13 13 12 13 14 16 18 13 16 17 15 15 17 17 15 17 19 22 22 22 20 20
3 4 3 6 10 3 5 9 4 10 13 6 2 6 4 3 6 5 8 8 6 7 5 5 7 8 9 10 10 10 12 14 16 19 18 15 15 10 7 6 14 15 15 18 22 22 20 20 20
6 4 6 4 7 6 5 5 4 5 5 7 7 6 2 2 2 5 7 7 6 6 7 6 6 6 7 8 11 11 16 16 18 18 17 19 23 24 7 7 8 15 19 19 20 21 19 20 19
6 5 4 6 5 10 4 3 5 3 6 1 9 6 5 7 7 6 7 6 5 6 6 6 6 6 5 3 8 13 15 13 12 15 13 16 18 20 24 19 8 17 22 20 19 18 17 17 18
5 3 7 12 8 7 3 7 4 5 3 5 9 9 4 16 11 7 4 3 3 2 5 5 5 5 6 5 6 13 14 15 13 12 14 13 7 8 11 12 16 15 17 20 19 18 15 17 19
5 6 12 6 8 5 5 5 7 7 11 6 2 3 6 18 15 14 10 9 6 7 6 9 6 6 5 5 5 5 6 5 4 5 7 7 10 9 7 13 16 18 20 21 21 17 16 16 9
7 12 5 7 6 4 5 8 2 4 9 8 8 5 8 10 13 12 11 9 13 7 5 6 6 6 6 5 4 3 2 3 3 6 7 6 7 7 7 5 7 9 21 9 11 11 8 11 9
6 7 13 7 6 3 7 7 5 7 16 10 11 5 10 12 14 14 13 10 8 7 8 7 7 8 6 5 4 4 4 5 5 4 5 5 6 9 9 7 8 5 6 9 8 5 8 9 9
9 3 7 7 8 7 8 13 11 17 13 15 6 8 15 16 16 11 8 6 7 8 8 9 8 7 6 7 5 4 5 6 6 4 4 7 6 7 5 9 6 4 5 8 7 7 8 9 9
3 10 14 7 11 6 12 17 5 9 12 12 8 14 14 17 20 8 8 9 12 11 11 9 8 7 7 5 7 6 5 5 5 4 4 6 8 8 6 7 8 6 6 8 9 8 7 7 8
6 15 10 5 5 7 6 20 11 13 13 10 11 11 12 17 11 17 19 15 17 13 12 12 10 8 8 7 5 5 4 5 5 6 6 5 9 12 11 8 8 7 7 7 8 7 5 7 6
4 3 1 4 9 8 9 31 8 9 9 11 11 9 11 16 15 19 14 16 15 12 12 10 9 9 9 7 6 4 5 4 4 6 6 8 7 11 10 8 8 7 7 5 6 9 8 7 8
3 6 5 4 6 5 10 18 3 4 6 10 10 10 9 9 10 12 16 16 17 15 14 12 10 10 9 7 5 5 5 4 3 3 7 10 10 10 9 8 8 9 8 8 7 4 8 7 7
6 5 2 4 3 3 7 14 4 6 4 8 9 11 10 10 16 16 17 14 15 13 13 12 10 9 8 6 5 3 3 3 3 3 3 9 10 12 10 8 9 8 8 6 7 10 4 4 8
4 4 4 3 5 5 4 13 14 9 9 13 10 11 12 14 13 16 15 13 14 12 13 14 14 13 8 6 5 3 3 2 2 2 4 4 10 13 11 9 10 8 9 11 10 8 12 4 5
6 7 9 5 5 6 6 16 18 16 8 12 14 13 15 17 7 12 15 14 17 18 17 17 15 14 11 8 7 4 4 2 2 2 3 4 6 11 12 10 11 12 8 9 9 12 6 3 9
4 7 4 7 4 6 6 19 14 19 10 9 10 10 14 16 12 13 16 17 15 19 21 19 18 15 12 9 6 4 5 3 1 1 1 5 7 8 10 13 12 11 7 9 9 11 11 10 2
4 5 6 4 2 8 3 18 23 12 12 12 14 9 13 8 7 13 15 15 18 16 14 15 17 15 13 10 7 9 5 6 3 3 1 3 8 9 7 12 14 14 13 11 8 8 9 8 9
5 4 5 7 4 2 5 4 16 7 14 16 10 8 9 13 13 15 18 21 18 16 16 15 14 13 15 11 9 7 6 4 4 5 4 3 4 6 9 9 11 16 11 9 9 6 7 6 6
1 2 3 4 0 10 11 11 12 9 13 13 14 12 13 10 10 16 18 13 13 13 14 17 17 14 16 11 9 11 10 8 5 6 5 3 3 3 7 10 10 11 13 8 6 3 5 6 5
3 3 2 4 6 7 5 12 17 23 20 17 17 14 13 9 10 14 16 17 16 19 19 17 18 16 14 12 11 11 10 10 9 9 6 7 4 3 6 10 13 11 13 9 8 8 9 11 14
6 5 3 5 3 3 8 8 6 12 14 8 11 10 15 13 7 16 21 20 20 20 20 18 19 17 15 13 12 10 10 7 7 8 8 6 6 5 5 7 9 10 13 11 10 7 6 6 5
3 7 2 6 3 3 5 7 5 14 17 18 14 13 12 13 11 18 20 18 18 18 20 19 18 16 17 17 11 11 10 10 7 8 8 6 7 7 8 6 7 9 10 10 8 7 5 5 5
4 3 4 3 3 4 5 5 2 13 17 18 19 15 12 9 5 14 16 18 16 14 13 14 15 16 17 16 12 10 10 10 9 8 8 7 6 6 9 10 9 9 9 9 10 8 7 8 5
4 3 3 3 4 2 4 3 5 7 11 15 16 18 17 12 3 5 10 10 13 12 13 13 13 14 15 16 14 13 11 11 9 10 8 8 8 8 9 11 11 11 11 10 11 12 13 11 10
4 3 4 3 2 4 2 6 4 9 11 16 20 20 17 15 2 8 7 9 10 10 10 10 11 12 12 12 12 13 11 11 10 10 10 10 10 9 9 9 11 11 11 10 11 11 11 12 12
Wind_Direction
127 96 79 44 58 65 259 261 248 291 314 220 128 153 190 105 150 212 217 178 134 158 167 173 173 165 156 153 148 142 139 139 138 135 135 137 138 138 137 135 133 133 137 136 130 128 131 130 123
140 137 43 86 94 80 268 254 249 238 241 102 105 105 53 87 153 152 135 180 160 157 165 175 175 168 163 160 156 151 149 147 144 143 142 143 141 141 141 141 143 142 144 140 137 136 132 128 121
151 63 90 107 137 190 223 227 48 315 321 239 147 34 155 190 167 166 229 151 149 160 170 176 176 175 172 169 166 161 157 152 148 143 148 148 149 150 151 149 152 148 148 147 142 135 133 128 123
119 13 29 115 225 246 211 267 27 319 326 251 145 130 232 225 163 182 145 143 151 166 173 178 176 179 180 177 175 169 160 152 151 151 153 154 155 154 150 149 153 150 152 152 145 137 137 131 126
39 57 77 264 248 241 239 252 246 276 240 261 198 183 231 337 116 132 142 144 156 166 176 170 174 183 185 181 178 172 155 152 153 151 154 150 149 145 143 148 151 157 159 154 140 140 137 132 128
56 102 89 240 246 245 259 245 240 235 245 247 151 122 201 3 134 136 120 126 139 151 150 151 173 183 183 186 178 171 153 133 128 124 117 113 119 89 112 155 145 165 155 150 144 143 135 134 131
134 107 211 240 271 288 226 225 241 223 212 225 142 136 276 229 110 117 110 116 132 138 142 156 162 182 195 192 179 157 147 146 136 132 130 135 135 148 195 208 190 179 160 146 148 142 137 133 132
127 116 195 240 228 271 223 284 274 167 234 91 137 184 217 198 143 100 100 110 131 152 163 167 167 152 150 175 167 152 153 154 145 138 139 136 153 163 164 178 191 212 157 146 150 141 136 133 137
135 127 202 227 183 240 339 12 310 326 308 287 175 162 231 129 128 115 112 115 135 168 181 170 169 157 143 135 154 154 164 164 162 170 173 160 166 163 170 180 176 213 166 150 145 144 133 139 140
164 192 209 221 208 269 302 342 318 351 326 289 229 25 105 142 159 164 180 177 188 192 187 181 171 159 143 137 137 130 152 164 146 157 173 171 178 184 200 180 189 195 183 158 149 128 126 132 137
211 232 209 240 224 231 283 304 269 274 293 246 261 159 159 164 177 180 189 187 198 189 168 173 169 162 149 143 139 135 135 146 157 161 174 171 161 193 184 210 168 204 168 154 140 125 131 136 139
247 217 217 242 241 238 250 269 266 191 255 247 249 184 161 174 192 194 195 191 184 188 187 176 167 166 166 148 152 155 150 173 184 190 181 185 188 196 190 184 165 162 145 142 142 133 141 128 134
242 255 238 239 260 243 263 261 252 268 257 260 228 168 184 187 202 208 203 186 171 191 197 185 166 171 168 155 157 157 179 189 191 178 168 211 173 174 186 131 140 139 152 151 142 140 143 135 135
249 224 253 254 269 257 261 265 230 266 253 265 214 201 199 194 197 179 177 187 188 190 198 181 172 171 161 144 158 164 174 179 169 175 175 163 150 149 157 147 155 149 170 162 151 151 145 136 140
246 268 280 204 215 240 256 268 245 237 256 248 252 208 205 211 192 197 200 187 189 197 186 182 170 172 163 159 160 150 166 168 167 179 168 184 172 161 170 166 165 165 168 163 144 127 123 135 138
247 252 229 221 191 240 185 264 260 241 246 254 254 249 207 216 202 207 200 193 186 178 186 173 174 173 160 165 159 160 160 166 170 176 175 187 178 174 169 171 165 157 143 150 165 147 148 140 142
262 262 244 303 209 222 196 277 206 314 278 269 279 276 255 211 207 209 213 191 180 177 173 170 172 174 163 150 145 145 158 149 165 165 182 190 183 180 175 171 162 157 154 162 161 136 155 145 142
226 259 199 199 218 216 273 279 272 288 290 291 281 274 264 248 200 201 201 188 173 170 168 164 169 165 152 135 120 102 130 131 154 205 195 184 187 184 178 168 157 158 159 163 165 153 133 134 145
240 264 243 239 259 294 232 283 298 290 310 300 289 283 274 252 231 195 186 173 158 160 164 169 165 171 157 150 138 154 164 157 148 198 226 238 188 184 185 166 155 158 177 175 166 153 142 133 133
246 264 270 251 216 267 275 287 287 276 253 259 275 287 283 270 170 176 170 171 172 170 174 171 171 167 172 173 170 167 166 154 134 158 240 227 221 188 191 172 166 172 171 166 172 165 145 112 162
245 240 246 255 296 258 282 276 267 269 265 263 258 265 283 267 190 175 172 178 170 176 180 174 171 167 174 166 133 117 96 77 122 176 207 236 227 183 186 171 164 165 163 166 182 177 169 157 192
277 220 247 263 279 267 42 283 269 271 265 266 270 262 274 242 192 182 175 172 185 181 173 163 169 170 175 163 160 161 164 171 179 149 172 204 199 186 197 170 169 174 170 179 172 179 177 148 168
233 341 280 254 212 312 163 272 280 188 248 260 266 255 257 260 187 187 184 191 185 165 169 161 161 168 175 168 166 155 164 163 149 137 161 137 133 162 184 174 180 175 172 156 145 182 171 150 165
337 325 294 336 3 253 226 202 279 236 240 253 259 247 254 232 208 200 196 171 169 160 160 164 167 173 175 169 168 164 170 152 161 151 152 132 118 106 153 161 156 160 155 144 126 156 169 165 161
147 147 266 234 214 253 280 212 251 289 267 248 254 255 263 222 193 185 173 175 168 171 169 170 172 175 169 171 175 173 175 157 177 167 163 152 144 140 145 147 147 149 155 177 161 164 189 183 190
194 227 221 248 220 276 201 241 242 251 262 264 273 288 283 285 204 182 184 180 174 171 171 171 174 173 171 173 177 175 176 169 184 181 169 172 166 163 154 149 158 162 169 175 176 182 198 164 201
173 225 290 304 255 268 234 279 292 14 9 2 355 354 316 276 219 194 180 175 172 173 174 172 169 173 180 184 177 176 179 178 179 184 178 182 170 161 162 164 168 173 172 175 180 192 205 156 199
159 92 198 172 264 264 266 279 357 8 351 351 349 349 335 300 247 180 174 172 171 169 164 161 168 173 178 184 183 179 178 183 178 175 185 171 173 172 165 174 176 177 177 182 192 206 216 203 199
159 231 215 288 253 263 320 276 49 17 348 342 342 342 336 354 152 171 166 156 154 153 159 160 165 168 176 184 191 187 183 180 181 184 182 180 174 182 187 189 190 191 193 188 190 201 206 218 212
129 163 198 231 273 275 258 268 19 357 359 341 340 345 344 359 143 117 131 136 130 143 151 163 166 173 177 181 188 197 187 185 183 188 187 179 185 188 188 188 200 201 200 201 206 205 203 204 212